Weather History for KTSP - September, 2012

Change the Weather History Date:

Wednesday, September 19, 2012

  Actual Average Record
Temperature  
Mean Temperature 68 °F -  
Max Temperature 86 °F 76 °F 86 °F (2011)
Min Temperature 50 °F 49 °F 41 °F (2013)
Cooling Degree Days 3    
Growing Degree Days 18 (Base 50)    
Moisture  
Dew Point 39 °F    
Average Humidity 40    
Maximum Humidity 62    
Minimum Humidity 14    
Precipitation  
Precipitation 0.00 in - - ()
Sea Level Pressure  
Sea Level Pressure 30.17 in    
Wind  
Wind Speed 4 mph (NW)    
Max Wind Speed 17 mph    
Max Gust Speed 24 mph    
Visibility 9 miles    
Events      
Averages and records for this station are not official NWS values.
T = Trace of Precipitation, MM = Missing Value Source: NWS Daily Summary

Daily Weather History Graph

Daily Weather History Graph

Search for Another Location

Airport or City:

Trip Planner

Search our weather history database for the weather conditions in past years. The results will help you decide how hot, cold, wet, or windy it might be!

Date:

Astronomy

Sep. 19, 2012 Rise Set
Actual Time 6:39 AM PDT 6:54 PM PDT
Civil Twilight 6:14 AM PDT 7:19 PM PDT
Nautical Twilight 5:44 AM PDT 7:48 PM PDT
Astronomical Twilight 5:14 AM PDT 8:18 PM PDT
Moon 10:43 AM PDT (9/19) 9:19 PM PDT (9/19)
Length of Visible Light 13h 04m
Length of Day
12h 14m
Waxing Crescent, 18% of the Moon is Illuminated
Sep 19
Waxing Crescent
Sep 22
First Quarter
Sep 29
Full
Oct 8
Last Quarter
Oct 15
New

Hourly Weather History & Observations

Time (PDT) Temp. Dew Point Humidity Pressure Visibility Wind Dir Wind Speed Gust Speed Precip Events Conditions
12:15 AM 57.2 °F 41.0 °F 55% 30.20 in 10.0 mi East 4.6 mph - N/A   Clear
12:35 AM 53.6 °F 41.0 °F 62% 30.19 in 10.0 mi Calm Calm - N/A   Clear
12:55 AM 53.6 °F 39.2 °F 58% 30.19 in 10.0 mi Calm Calm - N/A   Clear
1:15 AM 53.6 °F 37.4 °F 54% 30.19 in 10.0 mi Calm Calm - N/A   Clear
1:35 AM 53.6 °F 37.4 °F 54% 30.19 in 10.0 mi SE 3.5 mph - N/A   Clear
1:55 AM 51.8 °F 37.4 °F 58% 30.19 in 10.0 mi Calm Calm - N/A   Clear
2:15 AM 51.8 °F 39.2 °F 62% 30.19 in 10.0 mi Calm Calm - N/A   Clear
2:35 AM 51.8 °F 37.4 °F 58% 30.18 in 10.0 mi Calm Calm - N/A   Clear
2:55 AM 51.8 °F 37.4 °F 58% 30.18 in 10.0 mi ENE 5.8 mph - N/A   Clear
3:15 AM 51.8 °F 37.4 °F 58% 30.18 in 10.0 mi Calm Calm - N/A   Clear
3:35 AM 51.8 °F 35.6 °F 54% 30.17 in 10.0 mi Calm Calm - N/A   Clear
3:55 AM 51.8 °F 35.6 °F 54% 30.17 in 10.0 mi East 3.5 mph - N/A   Clear
4:15 AM 51.8 °F 35.6 °F 54% 30.17 in 10.0 mi SE 5.8 mph - N/A   Clear
4:35 AM 50.0 °F 37.4 °F 62% 30.17 in 10.0 mi ESE 3.5 mph - N/A   Clear
4:55 AM 51.8 °F 33.8 °F 50% 30.17 in 10.0 mi Calm Calm - N/A   Clear
5:15 AM 50.0 °F 35.6 °F 58% 30.17 in 10.0 mi ESE 3.5 mph - N/A   Clear
5:35 AM 51.8 °F 33.8 °F 50% 30.17 in 10.0 mi ESE 5.8 mph - N/A   Clear
5:55 AM 50.0 °F 33.8 °F 54% 30.17 in 10.0 mi Calm Calm - N/A   Clear
6:15 AM 51.8 °F 33.8 °F 50% 30.18 in 10.0 mi East 3.5 mph - N/A   Clear
6:35 AM 50.0 °F 32.0 °F 50% 30.18 in 8.0 mi Calm Calm - N/A   Clear
6:55 AM 50.0 °F 33.8 °F 54% 30.18 in 8.0 mi ESE 4.6 mph - N/A   Clear
7:15 AM 50.0 °F 32.0 °F 50% 30.18 in 7.0 mi Calm Calm - N/A   Clear
7:35 AM 53.6 °F 35.6 °F 51% 30.19 in 8.0 mi Calm Calm - N/A   Clear
7:55 AM 57.2 °F 35.6 °F 44% 30.19 in 8.0 mi Calm Calm - N/A   Clear
8:15 AM 60.8 °F 35.6 °F 39% 30.19 in 8.0 mi Calm Calm - N/A   Clear
8:35 AM 64.4 °F 35.6 °F 34% 30.19 in 8.0 mi East 3.5 mph - N/A   Clear
8:55 AM 68.0 °F 35.6 °F 30% 30.19 in 7.0 mi Calm Calm - N/A   Clear
9:15 AM 71.6 °F 33.8 °F 25% 30.19 in 9.0 mi SW 3.5 mph - N/A   Clear
9:35 AM 75.2 °F 33.8 °F 22% 30.19 in 9.0 mi West 3.5 mph - N/A   Clear
9:55 AM 77.0 °F 33.8 °F 21% 30.20 in 10.0 mi NW 5.8 mph - N/A   Clear
10:15 AM 77.0 °F 35.6 °F 22% 30.20 in 7.0 mi Calm Calm - N/A   Clear
10:35 AM 80.6 °F 35.6 °F 20% 30.19 in 10.0 mi WNW 5.8 mph - N/A   Clear
10:55 AM 82.4 °F 35.6 °F 19% 30.19 in 10.0 mi NW 6.9 mph - N/A   Clear
11:15 AM 82.4 °F 35.6 °F 19% 30.19 in 10.0 mi NW 9.2 mph - N/A   Clear
11:35 AM 82.4 °F 37.4 °F 20% 30.18 in 8.0 mi NW 10.4 mph - N/A   Clear
11:55 AM 84.2 °F 35.6 °F 18% 30.19 in 9.0 mi NNW 3.5 mph - N/A   Clear
12:15 PM 84.2 °F 32.0 °F 15% 30.18 in 10.0 mi SSE 9.2 mph - N/A   Clear
12:35 PM 86.0 °F 32.0 °F 14% 30.17 in 10.0 mi ESE 16.1 mph 20.7 mph N/A   Clear
12:55 PM 86.0 °F 32.0 °F 14% 30.17 in 10.0 mi SE 10.4 mph - N/A   Clear
1:15 PM 86.0 °F 32.0 °F 14% 30.16 in 9.0 mi East 17.3 mph 23.0 mph N/A   Clear
1:35 PM 86.0 °F 32.0 °F 14% 30.15 in 10.0 mi East 4.6 mph 17.3 mph N/A   Clear
1:55 PM 86.0 °F 32.0 °F 14% 30.15 in 10.0 mi ESE 9.2 mph 19.6 mph N/A   Clear
2:15 PM 86.0 °F 32.0 °F 14% 30.14 in 10.0 mi ESE 6.9 mph 16.1 mph N/A   Clear
2:35 PM 86.0 °F 32.0 °F 14% 30.14 in 10.0 mi Calm Calm - N/A   Clear
2:55 PM 86.0 °F 35.6 °F 17% 30.13 in 10.0 mi NW 16.1 mph 20.7 mph N/A   Clear
3:15 PM 84.2 °F 37.4 °F 19% 30.13 in 10.0 mi NW 17.3 mph 24.2 mph N/A   Clear
3:55 PM 82.4 °F 39.2 °F 21% 30.13 in 9.0 mi NW 15.0 mph - N/A   Clear
4:15 PM 80.6 °F 41.0 °F 24% 30.13 in 9.0 mi NW 17.3 mph 20.7 mph N/A   Clear
4:35 PM 80.6 °F 41.0 °F 24% 30.13 in 9.0 mi WNW 17.3 mph - N/A   Clear
4:55 PM 78.8 °F 42.8 °F 28% 30.13 in 8.0 mi NW 13.8 mph 20.7 mph N/A   Clear
5:15 PM 77.0 °F 44.6 °F 32% 30.14 in 8.0 mi WNW 11.5 mph 18.4 mph N/A   Clear
5:35 PM 77.0 °F 44.6 °F 32% 30.14 in 7.0 mi NW 11.5 mph - N/A   Clear
5:55 PM 75.2 °F 44.6 °F 34% 30.14 in 7.0 mi NW 9.2 mph - N/A   Clear
6:15 PM 73.4 °F 46.4 °F 38% 30.15 in 7.0 mi NW 12.7 mph - N/A   Clear
6:35 PM 71.6 °F 46.4 °F 41% 30.15 in 6.0 mi NW 10.4 mph - N/A   Haze
6:55 PM 69.8 °F 46.4 °F 43% 30.15 in 5.0 mi NW 10.4 mph - N/A   Haze
7:15 PM 68.0 °F 46.4 °F 46% 30.15 in 7.0 mi NW 11.5 mph - N/A   Clear
7:35 PM 68.0 °F 46.4 °F 46% 30.16 in 7.0 mi WNW 6.9 mph - N/A   Clear
7:55 PM 66.2 °F 46.4 °F 49% 30.16 in 7.0 mi NW 8.1 mph - N/A   Clear
8:15 PM 64.4 °F 44.6 °F 49% 30.17 in 7.0 mi NW 6.9 mph - N/A   Clear
8:35 PM 64.4 °F 46.4 °F 52% 30.17 in 7.0 mi NW 5.8 mph - N/A   Clear
8:55 PM 62.6 °F 44.6 °F 52% 30.18 in 7.0 mi West 5.8 mph - N/A   Clear
9:15 PM 62.6 °F 46.4 °F 55% 30.18 in 8.0 mi West 6.9 mph - N/A   Clear
9:35 PM 62.6 °F 46.4 °F 55% 30.19 in 7.0 mi West 6.9 mph - N/A   Clear
9:55 PM 62.6 °F 46.4 °F 55% 30.19 in 7.0 mi West 5.8 mph - N/A   Clear
10:35 PM 62.6 °F 46.4 °F 55% 30.19 in 7.0 mi WNW 4.6 mph - N/A   Clear
10:55 PM 59.0 °F 44.6 °F 59% 30.19 in 8.0 mi West 3.5 mph - N/A   Clear
11:15 PM 59.0 °F 44.6 °F 59% 30.20 in 9.0 mi Calm Calm - N/A   Clear
11:35 PM 59.0 °F 44.6 °F 59% 30.20 in 8.0 mi Calm Calm - N/A   Clear
11:55 PM 59.0 °F 44.6 °F 59% 30.19 in 8.0 mi Calm Calm - N/A   Clear